Погода в Кудымкаре

Погода в Кудымкаре : погода сейчас, прогноз погоды и архив. Всё, что Вы хотите узнать о погоде в Кудымкаре!

Хотите узнать прогноз погоды в Кудымкаре? Тогда Вам сюда: Погода в Кудымкаре

Поиск расширенной информации на нашем сайте:

Полезная информация: Роспись эбру турция. Турецкая керамика турция ebrussia.com.

Другие новости

Новости СМИ2

Главная страница сайта

Новости сайта

03.07.2017

Напоминаем, что на нашем специализированном сайте Метеоцентр.Азия вы можете получить высокодетализированные автоматические прогнозы погоды по пунктам России, СНГ и мира в авиационном формате (включающие направление и скорость ветра, видимость, явления погоды, количество и форму облачности, нижнюю и верхнюю границу облачности).

Рекомендуем: Все страницы Hypernova.ru/sitemap

Погода в Кудымкаре - сегодня

Время (UTC), дата Ветер
(°,м/с) 
Видим.   Явления Облачность Т
(°С)
Тd
(°С)
f(%) Тe
(°С)
Pmin
(гПа)
dP
(гПа)
Po
(мм)
O2
(г/м3)
Тmin Tmax R s Состояние
почвы
21 18.09.17 110 (В) 10 км  слаб. дождь  10/10 300 м 
[Sc]
+4.4 +3.4 93 +5  1019.2  -0.7  747  296           
00 19.09.17 120 (ЮВ) 10 км  слаб. дождь  10/10 300 м 
[Frnb|Ns]
+4.7 +4.2 97 +6  1018.6  -0.6  747  295           
03 19.09.17 110 (В) 10 км  слаб. дождь  10/10 300 м 
[Frnb|Ns]
+5.7 +5.6 99 +7  1016.9  -1.5  746  293  +2.4      мокрая 
06 19.09.17 130 (ЮВ) 10 км  слаб. дождь  10/10 300 м 
[Frnb|Ns]
+7.4 +7.3 99 +7  1014.8  -1.9  744  291           
09 19.09.17 120 (ЮВ) 4000 м  дымка{дождь}  10/10 300 м 
[Frnb|Ns]
+8.8 +8.8 100 +9  1012  -2.6  742  288           
12 19.09.17 090 (В) 10 км  слаб. морось  10/10 200 м 
[St]
+9.2 +9.2 100 +10  1011.3  -0.6  742  287           
18 19.09.17 180 (Ю) 4000 м  дымка{морось}  4/0 верхняя 
[Cs]
+11.4 +11.4 100 +15  1007.2  -0.7  739  284           
21 19.09.17 240 (ЮЗ) 4000 м  дымка  9/9 600 м 
[Sc]
+11.6 +11.3 98 +14  1008  0.8  739  284           
00 20.09.17 230 (ЮЗ) 20000 м    10/10 300 м 
[Sc]
+10.7 +10.2 97 +14  1009.5  1.4  740  285           
03 20.09.17 240 (ЮЗ) 20000 м    9/9 300 м 
[Sc]
+10.6 +9.9 95 +12  1010.7  1.2  741  286  +10        мокрая 
06 20.09.17 250 (З) 20000 м    10/10 300 м 
[Sc diur, vesp]
+12 +10.6 91 +13  1012.1  1.4  742  285           
09 20.09.17 260 (З) 20000 м    10/10 300 м 
[Sc]
+12.9 +10.9 88 +15  1013.3  1.3  743  284           
12 20.09.17 240 (ЮЗ) 20000 м    8/4 300 м средняя 
[Sc diur, vesp|Ac trans]
+14 +11 82 +17  1014.3  744  283           
18 20.09.17 340 (С) 20000 м  {дождь}  10/10 300 м 
[Sc diur, vesp]
+8.8 +8 95 +8  1018.2  1.7  747  290           
21 20.09.17 320 (СЗ) 20000 м    10/10 300 м 
[Sc diur, vesp]
+7.3 +6.3 93 +7  1019.7  1.4  748  292           
00 21.09.17 330 (СЗ) 20000 м    10/10 300 м 
[Sc diur, vesp]
+5.6 +4.5 93 +5  1021.6  1.7  749  295           
03 21.09.17 340 (С) 20000 м    10/10 300 м 
[Sc]
+5.6 +4.5 93 +5  1021.6  1.8  750  296  +5.1        влажная 
06 21.09.17 330 (СЗ) 20000 м  слаб. морось  10/10 300 м 
[St]
+6 +5.1 94 +5  1025  1.6  752  295  +5         
09 21.09.17 360 (С) 10 км  слаб. морось  10/10 200 м 
[St]
+7.2 +6.1 93 +7  1026.3  1.4  753  294           
12 21.09.17 020 (С) 20000 м  слаб. дождь{морось}  10/10 300 м 
[Frnb|Ns]
+7.2 +6.7 97 +6  1028.1  1.8  754  295           
18 21.09.17 010 (С) 20000 м  {дождь}  8/8 300 м 
[Sc]
+5.1 +4.8 98 +5  1032.1  1.7  757  299           
21 21.09.17 010 (С) 20000 м    8/8 300 м 
[Sc]
+4 +3.7 98 +3  1033.5  1.2  758  300           
00 22.09.17 010 (С) 20000 м    10/10 300 м 
[Sc]
+3.5 +3 97 +2  1035.1  1.5  759  301           
03 22.09.17 010 (С) 20000 м    10/10 300 м 
[St]
+2 +1.5 96 -1  1037  1.7  760  304  +2        мокрая 
06 22.09.17 020 (С) 10 км  слаб. морось  10/10 200 м 
[St]
+4.5 +3 90 +3  1037.3  1.7  760  301           
Время (UTC), дата Ветер
(°,м/с) 
Видим.   Явления Облачность Т
(°С)
Тd
(°С)
f(%) Тe
(°С)
Pmin
(гПа)
dP
(гПа)
Po
(мм)
O2
(г/м3)
Тmin Tmax R s Состояние
почвы

Для получения пояснительной информации подведите курсор к названию столбца.

ПОГОДА в Кудымкаре - архив

Всё, что Вы хотите узнать о погоде в Кудымкаре - удобно и подробно!

Выберите нужную дату (начиная с 1 января 2015* года) и нажмите кнопку "Найти".
Будут отображены архивные сводки погоды по пункту Кудымкар, начиная с указанной даты.


Отображать данные в формате CSV (для использования в таблицах Excel)


Внимание! Наш архив погоды предназначен исключительно для личного некоммерческого использования в познавательных целях. Если Вам необходимы официальные справки о состоянии погоды (для производственных, юридических, коммерческих и т.п. целей), обращайтесь в органы Росгидромета.

*Примечание: данная дата относится к архиву по метеостанциям СССР (Россия, СНГ, Балтия).
Архив по метеостанциям Зарубежной Европы и Азии (кроме Китая) хранится 10 дней, по другим регионам земного шара (Китай, Африка, Америка, Австралия, Океания) - 1 день.

Кудымкар - район местоположения метеостанции


Название, широта, долгота, высота метеостанции:
Кудымкар 59°ш. 54.6°д. 186 м над ур. моря [Российская Федерация]

Дополнительная информация

В oтличие oт бoльшинства пoгoдных сайтoв мы публикуем пoдрoбную метеoинфoрмацию в детальнoм прoфессиoнальнoм фoрмате.

Характеристики температуры и влажнoсти вoздуха измеряются на высoте 2 м в тени вдали oт зданий и деревьев.
Скoрoсть ветра измеряется на высoте 10 м (на урoвне рoста челoвека скoрoсть ветра ниже в 1.5-2 раза). Если метеoстанция нахoдится в гoрoде или в лесу, тo скoрoсть ветра занижена на 2-4 м/с пo сравнению с oткрытым местoм. Скoрoсть ветра над акватoриями крупных рек и oзёр, а также на вершинах хoлмoв на 2-5 м/с выше, чем в oбычных услoвиях.
Атмoсфернoе давление в разных тoчках местнoсти мoжет значительнo oтличаться oт давления на метеoстанции, в зависимoсти oт услoвий рельефа (при пoдъёме на 10 м давление пoнижается примернo на 1 мм рт.ст.).